Location: Be Tobo
(6.6442°N, 10.6239°W)
Time: 00:38:43
(UTC+00:00)

Atlas Centaur 2 - Pass Details

Date: 18 September 2020
Orbit: 459 x 1310 km, 30.4° (Epoch: 21 October)

Event Time Altitude Azimuth Distance (km) Brightness Sun altitude
Rises 19:34:48 0° 287° (WNW) 3,954 7.3 -14.3°
Reaches altitude 10° 19:38:06 10° 279° (W) 2,861 6.3 -15.1°
Maximum altitude 19:44:16 35° 217° (SW) 1,422 3.7 -16.7°
Drops below altitude 10° 19:49:17 10° 152° (SSE) 2,303 4.2 -17.9°
Enters shadow 19:49:18 10° 152° (SSE) 2,307 4.2 -17.9°
